Time,TemperatureF,DewpointF,PressureIn,WindDirection,WindDirectionDegrees,WindSpeedMPH,WindSpeedGustMPH,Humidity,HourlyPrecipIn,Conditions,Clouds,dailyrainin,SoftwareType,DateUTC
2013-08-13 00:00:00,65.3,61.3,29.91,SW,232,2.0,11.0,87,0.00,,,0.00,Wunderground v.1.15,2013-08-13 04:00:00,
2013-08-13 00:05:00,65.4,61.4,29.91,SW,232,2.0,11.0,87,0.00,,,0.00,Wunderground v.1.15,2013-08-13 04:05:00,
2013-08-13 00:10:00,65.7,61.7,29.91,SW,232,2.0,2.0,87,0.00,,,0.00,Wunderground v.1.15,2013-08-13 04:10:00,
2013-08-13 00:15:00,65.8,61.5,29.91,SSW,211,2.0,3.0,86,0.00,,,0.00,Wunderground v.1.15,2013-08-13 04:15:00,
2013-08-13 00:20:00,65.8,61.5,29.91,SW,222,3.0,11.0,86,0.00,,,0.00,Wunderground v.1.15,2013-08-13 04:20:00,
2013-08-13 00:30:00,65.9,61.6,29.91,SW,224,3.0,3.0,86,0.00,,,0.00,Wunderground v.1.15,2013-08-13 04:30:00,
2013-08-13 00:35:00,65.9,61.6,29.91,SW,231,3.0,11.0,86,0.00,,,0.00,Wunderground v.1.15,2013-08-13 04:35:00,
2013-08-13 00:40:00,65.7,61.4,29.91,SW,231,2.0,11.0,86,0.00,,,0.00,Wunderground v.1.15,2013-08-13 04:40:00,
2013-08-13 00:50:00,65.9,61.6,29.91,WSW,240,3.0,11.0,86,0.00,,,0.00,Wunderground v.1.15,2013-08-13 04:50:00,
2013-08-13 00:55:00,66.1,61.5,29.91,SW,226,3.0,11.0,85,0.00,,,0.00,Wunderground v.1.15,2013-08-13 04:55:00,
2013-08-13 01:00:00,66.4,61.8,29.90,WSW,240,3.0,11.0,85,0.00,,,0.00,Wunderground v.1.15,2013-08-13 05:00:00,
2013-08-13 01:05:00,66.6,61.6,29.90,SW,226,4.0,11.0,84,0.00,,,0.00,Wunderground v.1.15,2013-08-13 05:05:00,
2013-08-13 01:10:00,66.7,61.7,29.90,WSW,245,3.0,11.0,84,0.00,,,0.00,Wunderground v.1.15,2013-08-13 05:10:00,
2013-08-13 01:20:00,66.5,61.8,29.90,SSW,205,2.0,11.0,85,0.00,,,0.00,Wunderground v.1.15,2013-08-13 05:20:00,
2013-08-13 01:25:00,66.5,61.8,29.89,SSW,213,2.0,11.0,85,0.00,,,0.00,Wunderground v.1.15,2013-08-13 05:25:00,
2013-08-13 01:30:00,66.3,61.7,29.89,SW,214,2.0,11.0,85,0.00,,,0.00,Wunderground v.1.15,2013-08-13 05:30:00,
2013-08-13 01:35:00,66.1,61.5,29.89,SW,229,2.0,11.0,85,0.00,,,0.00,Wunderground v.1.15,2013-08-13 05:35:00,
2013-08-13 01:45:00,66.2,61.6,29.89,SSW,200,2.0,11.0,85,0.00,,,0.00,Wunderground v.1.15,2013-08-13 05:45:00,
2013-08-13 01:50:00,66.2,61.6,29.89,SSW,201,2.0,11.0,85,0.00,,,0.00,Wunderground v.1.15,2013-08-13 05:50:00,
2013-08-13 01:55:00,66.2,61.6,29.88,SSW,207,2.0,11.0,85,0.00,,,0.00,Wunderground v.1.15,2013-08-13 05:55:00,
2013-08-13 02:00:00,66.1,61.5,29.88,SSW,207,2.0,11.0,85,0.00,,,0.00,Wunderground v.1.15,2013-08-13 06:00:00,
2013-08-13 02:05:00,66.0,61.4,29.88,SSW,207,2.0,11.0,85,0.00,,,0.00,Wunderground v.1.15,2013-08-13 06:05:00,
2013-08-13 02:15:00,65.9,61.6,29.88,SSW,207,2.0,11.0,86,0.00,,,0.00,Wunderground v.1.15,2013-08-13 06:15:00,
2013-08-13 02:20:00,66.1,61.5,29.88,SW,221,2.0,11.0,85,0.00,,,0.00,Wunderground v.1.15,2013-08-13 06:20:00,
2013-08-13 02:25:00,66.3,61.7,29.88,SW,215,3.0,11.0,85,0.00,,,0.00,Wunderground v.1.15,2013-08-13 06:25:00,
2013-08-13 02:35:00,66.7,61.7,29.88,WSW,238,3.0,6.0,84,0.00,,,0.00,Wunderground v.1.15,2013-08-13 06:35:00,
2013-08-13 02:40:00,66.8,61.5,29.87,SW,217,3.0,11.0,83,0.00,,,0.00,Wunderground v.1.15,2013-08-13 06:40:00,
2013-08-13 02:45:00,66.9,61.6,29.87,WSW,245,3.0,11.0,83,0.00,,,0.00,Wunderground v.1.15,2013-08-13 06:45:00,
2013-08-13 02:50:00,67.0,61.3,29.87,SW,221,3.0,3.0,82,0.00,,,0.00,Wunderground v.1.15,2013-08-13 06:50:00,
2013-08-13 03:00:00,67.0,61.3,29.87,WSW,245,3.0,11.0,82,0.00,,,0.00,Wunderground v.1.15,2013-08-13 07:00:00,
2013-08-13 03:05:00,66.9,61.2,29.87,WSW,245,2.0,11.0,82,0.00,,,0.00,Wunderground v.1.15,2013-08-13 07:05:00,
2013-08-13 03:10:00,67.0,61.0,29.87,South,177,3.0,11.0,81,0.00,,,0.00,Wunderground v.1.15,2013-08-13 07:10:00,
2013-08-13 03:15:00,67.2,61.2,29.87,SSW,199,3.0,11.0,81,0.00,,,0.00,Wunderground v.1.15,2013-08-13 07:15:00,
2013-08-13 03:20:00,67.2,61.2,29.87,South,190,3.0,3.0,81,0.00,,,0.00,Wunderground v.1.15,2013-08-13 07:20:00,
2013-08-13 03:30:00,67.0,61.0,29.86,SSW,210,3.0,11.0,81,0.00,,,0.00,Wunderground v.1.15,2013-08-13 07:30:00,
2013-08-13 03:35:00,66.7,61.0,29.86,SW,234,3.0,11.0,82,0.00,,,0.00,Wunderground v.1.15,2013-08-13 07:35:00,
2013-08-13 03:40:00,66.7,61.0,29.85,SW,232,3.0,11.0,82,0.00,,,0.00,Wunderground v.1.15,2013-08-13 07:40:00,
2013-08-13 03:45:00,66.7,60.7,29.85,SW,232,3.0,11.0,81,0.00,,,0.00,Wunderground v.1.15,2013-08-13 07:45:00,
2013-08-13 03:55:00,66.9,60.5,29.85,SW,230,3.0,11.0,80,0.00,,,0.00,Wunderground v.1.15,2013-08-13 07:55:00,
2013-08-13 04:00:00,66.8,60.4,29.85,WSW,245,2.0,11.0,80,0.00,,,0.00,Wunderground v.1.15,2013-08-13 08:00:00,
2013-08-13 04:05:00,66.8,60.4,29.85,WSW,250,3.0,11.0,80,0.00,,,0.00,Wunderground v.1.15,2013-08-13 08:05:00,
2013-08-13 04:10:00,66.8,60.4,29.85,WSW,245,3.0,11.0,80,0.00,,,0.00,Wunderground v.1.15,2013-08-13 08:10:00,
2013-08-13 04:20:00,66.8,60.4,29.84,SW,214,2.0,11.0,80,0.00,,,0.00,Wunderground v.1.15,2013-08-13 08:20:00,
2013-08-13 04:25:00,66.8,60.4,29.84,SW,214,2.0,11.0,80,0.00,,,0.00,Wunderground v.1.15,2013-08-13 08:25:00,
2013-08-13 04:30:00,66.6,60.2,29.84,SW,214,2.0,2.0,80,0.00,,,0.00,Wunderground v.1.15,2013-08-13 08:30:00,
2013-08-13 04:35:00,66.5,60.5,29.84,SSW,213,1.0,11.0,81,0.00,,,0.00,Wunderground v.1.15,2013-08-13 08:35:00,
2013-08-13 04:45:00,66.4,60.4,29.84,SW,214,2.0,11.0,81,0.00,,,0.00,Wunderground v.1.15,2013-08-13 08:45:00,
2013-08-13 04:50:00,66.4,60.7,29.84,SW,232,2.0,11.0,82,0.00,,,0.00,Wunderground v.1.15,2013-08-13 08:50:00,
2013-08-13 04:55:00,66.4,60.7,29.84,SW,232,2.0,11.0,82,0.00,,,0.00,Wunderground v.1.15,2013-08-13 08:55:00,
2013-08-13 05:05:00,66.4,61.1,29.84,SW,232,2.0,11.0,83,0.00,,,0.00,Wunderground v.1.15,2013-08-13 09:05:00,
2013-08-13 05:10:00,66.3,61.3,29.84,SW,231,2.0,11.0,84,0.00,,,0.00,Wunderground v.1.15,2013-08-13 09:10:00,
2013-08-13 05:15:00,66.2,61.2,29.84,SW,232,2.0,11.0,84,0.00,,,0.00,Wunderground v.1.15,2013-08-13 09:15:00,
2013-08-13 05:20:00,66.1,61.5,29.84,SW,232,2.0,2.0,85,0.00,,,0.00,Wunderground v.1.15,2013-08-13 09:20:00,
2013-08-13 05:30:00,65.9,61.6,29.84,SW,231,2.0,11.0,86,0.00,,,0.00,Wunderground v.1.15,2013-08-13 09:30:00,
2013-08-13 05:35:00,65.9,61.6,29.84,SW,232,3.0,11.0,86,0.00,,,0.00,Wunderground v.1.15,2013-08-13 09:35:00,
2013-08-13 05:40:00,65.8,61.5,29.84,SW,232,2.0,11.0,86,0.00,,,0.00,Wunderground v.1.15,2013-08-13 09:40:00,
2013-08-13 05:45:00,65.7,61.7,29.84,SW,232,2.0,11.0,87,0.00,,,0.00,Wunderground v.1.15,2013-08-13 09:45:00,
2013-08-13 05:50:00,65.6,61.6,29.84,SW,232,2.0,11.0,87,0.00,,,0.00,Wunderground v.1.15,2013-08-13 09:50:00,
2013-08-13 06:00:00,65.6,61.6,29.84,SW,231,1.0,1.0,87,0.00,,,0.00,Wunderground v.1.15,2013-08-13 10:00:00,
2013-08-13 06:05:00,65.6,61.9,29.84,SW,232,0.0,2.0,88,0.00,,,0.00,Wunderground v.1.15,2013-08-13 10:05:00,
2013-08-13 06:10:00,65.6,61.6,29.84,SW,232,1.0,1.0,87,0.00,,,0.00,Wunderground v.1.15,2013-08-13 10:10:00,
2013-08-13 06:20:00,65.6,61.6,29.84,South,179,2.0,11.0,87,0.00,,,0.00,Wunderground v.1.15,2013-08-13 10:20:00,
2013-08-13 06:25:00,65.5,61.5,29.84,South,179,3.0,11.0,87,0.00,,,0.00,Wunderground v.1.15,2013-08-13 10:25:00,
2013-08-13 06:30:00,65.4,61.4,29.84,South,179,3.0,3.0,87,0.00,,,0.00,Wunderground v.1.15,2013-08-13 10:30:00,
2013-08-13 06:35:00,65.2,61.2,29.84,South,179,2.0,11.0,87,0.00,,,0.00,Wunderground v.1.15,2013-08-13 10:35:00,
2013-08-13 06:40:00,65.1,61.1,29.84,South,178,3.0,11.0,87,0.00,,,0.00,Wunderground v.1.15,2013-08-13 10:40:00,
2013-08-13 06:50:00,64.9,61.3,29.85,South,175,4.0,4.0,88,0.00,,,0.00,Wunderground v.1.15,2013-08-13 10:50:00,
2013-08-13 06:55:00,64.9,61.3,29.85,South,177,3.0,11.0,88,0.00,,,0.00,Wunderground v.1.15,2013-08-13 10:55:00,
2013-08-13 07:00:00,64.9,61.3,29.85,South,178,3.0,3.0,88,0.00,,,0.00,Wunderground v.1.15,2013-08-13 11:00:00,
2013-08-13 07:05:00,64.9,61.6,29.85,South,177,3.0,11.0,89,0.00,,,0.00,Wunderground v.1.15,2013-08-13 11:05:00,
2013-08-13 07:15:00,65.0,61.7,29.84,South,178,3.0,11.0,89,0.00,,,0.00,Wunderground v.1.15,2013-08-13 11:15:00,
2013-08-13 07:20:00,65.0,62.0,29.84,South,178,3.0,3.0,90,0.00,,,0.00,Wunderground v.1.15,2013-08-13 11:20:00,
2013-08-13 07:25:00,65.0,62.0,29.84,South,178,3.0,11.0,90,0.00,,,0.00,Wunderground v.1.15,2013-08-13 11:25:00,
2013-08-13 07:30:00,65.1,62.4,29.83,South,178,2.0,11.0,91,0.00,,,0.00,Wunderground v.1.15,2013-08-13 11:30:00,
2013-08-13 07:40:00,65.5,62.8,29.83,South,178,2.0,11.0,91,0.00,,,0.00,Wunderground v.1.15,2013-08-13 11:40:00,
2013-08-13 07:45:00,65.9,63.2,29.83,SSW,201,2.0,11.0,91,0.00,,,0.00,Wunderground v.1.15,2013-08-13 11:45:00,
2013-08-13 07:50:00,66.1,63.4,29.83,SSW,194,2.0,11.0,91,0.00,,,0.00,Wunderground v.1.15,2013-08-13 11:50:00,
2013-08-13 08:00:00,66.6,63.9,29.83,SSW,194,2.0,11.0,91,0.00,,,0.00,Wunderground v.1.15,2013-08-13 12:00:00,
2013-08-13 08:05:00,66.6,63.9,29.83,SSW,195,2.0,11.0,91,0.00,,,0.00,Wunderground v.1.15,2013-08-13 12:05:00,
2013-08-13 08:10:00,66.7,64.0,29.83,SSW,194,2.0,2.0,91,0.00,,,0.00,Wunderground v.1.15,2013-08-13 12:10:00,
2013-08-13 08:15:00,66.8,64.1,29.83,SSW,195,1.0,11.0,91,0.00,,,0.00,Wunderground v.1.15,2013-08-13 12:15:00,
2013-08-13 08:25:00,67.1,64.1,29.82,SSW,195,2.0,11.0,90,0.00,,,0.00,Wunderground v.1.15,2013-08-13 12:25:00,
2013-08-13 08:30:00,67.2,64.2,29.82,SSW,195,2.0,11.0,90,0.00,,,0.00,Wunderground v.1.15,2013-08-13 12:30:00,
2013-08-13 08:35:00,67.3,64.3,29.82,SSW,194,3.0,11.0,90,0.00,,,0.00,Wunderground v.1.15,2013-08-13 12:35:00,
2013-08-13 08:45:00,67.4,64.0,29.82,SSW,195,3.0,11.0,89,0.00,,,0.00,Wunderground v.1.15,2013-08-13 12:45:00,
2013-08-13 08:50:00,67.4,64.0,29.81,SSW,194,2.0,2.0,89,0.00,,,0.00,Wunderground v.1.15,2013-08-13 12:50:00,
2013-08-13 08:55:00,67.4,64.0,29.81,SSW,194,2.0,3.0,89,0.00,,,0.00,Wunderground v.1.15,2013-08-13 12:55:00,
2013-08-13 09:00:00,67.4,64.0,29.81,SSW,195,2.0,11.0,89,0.00,,,0.00,Wunderground v.1.15,2013-08-13 13:00:00,
2013-08-13 09:10:00,67.5,64.5,29.82,SSW,194,2.0,11.0,90,0.00,,,0.00,Wunderground v.1.15,2013-08-13 13:10:00,
2013-08-13 09:15:00,67.5,64.5,29.81,SSW,195,2.0,11.0,90,0.00,,,0.00,Wunderground v.1.15,2013-08-13 13:15:00,
2013-08-13 09:20:00,67.4,64.4,29.81,SSW,194,2.0,11.0,90,0.00,,,0.00,Wunderground v.1.15,2013-08-13 13:20:00,
2013-08-13 09:25:00,67.4,64.7,29.82,SSW,195,3.0,11.0,91,0.00,,,0.00,Wunderground v.1.15,2013-08-13 13:25:00,
2013-08-13 09:35:00,67.2,64.5,29.82,SSW,195,3.0,11.0,91,0.00,,,0.00,Wunderground v.1.15,2013-08-13 13:35:00,
2013-08-13 09:40:00,67.1,64.4,29.82,SSW,195,2.0,11.0,91,0.00,,,0.00,Wunderground v.1.15,2013-08-13 13:40:00,
2013-08-13 09:45:00,67.1,64.4,29.82,SSW,194,2.0,11.0,91,0.00,,,0.00,Wunderground v.1.15,2013-08-13 13:45:00,
2013-08-13 09:55:00,66.9,64.5,29.82,SSW,194,2.0,11.0,92,0.00,,,0.00,Wunderground v.1.15,2013-08-13 13:55:00,
2013-08-13 10:00:00,66.8,64.1,29.82,SSW,195,2.0,11.0,91,0.00,,,0.01,Wunderground v.1.15,2013-08-13 14:00:00,
2013-08-13 10:05:00,66.7,64.0,29.82,SSW,195,2.0,11.0,91,0.00,,,0.01,Wunderground v.1.15,2013-08-13 14:05:00,
2013-08-13 10:10:00,66.6,63.9,29.82,SSW,195,2.0,2.0,91,0.04,,,0.02,Wunderground v.1.15,2013-08-13 14:10:00,
2013-08-13 10:20:00,66.5,64.1,29.83,SSW,195,2.0,2.0,92,0.04,,,0.02,Wunderground v.1.15,2013-08-13 14:20:00,
2013-08-13 10:25:00,66.4,64.0,29.83,SSW,194,2.0,4.0,92,0.04,,,0.02,Wunderground v.1.15,2013-08-13 14:25:00,
2013-08-13 10:30:00,66.5,64.1,29.83,SSW,195,3.0,3.0,92,0.00,,,0.02,Wunderground v.1.15,2013-08-13 14:30:00,
2013-08-13 10:35:00,66.5,64.1,29.83,SSW,194,2.0,11.0,92,0.00,,,0.02,Wunderground v.1.15,2013-08-13 14:35:00,
2013-08-13 10:40:00,66.5,64.1,29.83,South,190,3.0,3.0,92,0.00,,,0.03,Wunderground v.1.15,2013-08-13 14:40:00,
2013-08-13 10:50:00,66.5,64.4,29.83,South,188,2.0,11.0,93,0.07,,,0.04,Wunderground v.1.15,2013-08-13 14:50:00,
2013-08-13 10:55:00,66.5,64.4,29.83,South,188,2.0,11.0,93,0.06,,,0.04,Wunderground v.1.15,2013-08-13 14:55:00,
2013-08-13 11:00:00,66.5,64.4,29.83,South,188,3.0,11.0,93,0.04,,,0.04,Wunderground v.1.15,2013-08-13 15:00:00,
2013-08-13 11:05:00,66.5,64.4,29.83,South,188,3.0,11.0,93,0.00,,,0.05,Wunderground v.1.15,2013-08-13 15:05:00,
2013-08-13 11:10:00,66.6,64.5,29.83,SSW,192,3.0,3.0,93,0.00,,,0.05,Wunderground v.1.15,2013-08-13 15:10:00,
2013-08-13 11:20:00,66.8,64.4,29.83,South,190,3.0,11.0,92,0.00,,,0.05,Wunderground v.1.15,2013-08-13 15:20:00,
2013-08-13 11:25:00,66.9,64.5,29.83,SSW,203,4.0,11.0,92,0.00,,,0.05,Wunderground v.1.15,2013-08-13 15:25:00,
2013-08-13 11:30:00,66.7,64.0,29.83,SSW,200,5.0,11.0,91,0.60,,,0.10,Wunderground v.1.15,2013-08-13 15:30:00,
2013-08-13 11:40:00,66.1,63.7,29.82,South,184,5.0,5.0,92,0.07,,,0.11,Wunderground v.1.15,2013-08-13 15:40:00,
2013-08-13 11:45:00,66.3,63.9,29.82,South,184,3.0,11.0,92,0.07,,,0.11,Wunderground v.1.15,2013-08-13 15:45:00,
2013-08-13 11:50:00,66.5,64.4,29.82,South,184,3.0,3.0,93,0.05,,,0.11,Wunderground v.1.15,2013-08-13 15:50:00,
2013-08-13 11:55:00,66.7,64.6,29.81,South,184,3.0,11.0,93,0.00,,,0.11,Wunderground v.1.15,2013-08-13 15:55:00,
2013-08-13 12:00:00,66.9,64.8,29.81,South,184,3.0,3.0,93,0.00,,,0.11,Wunderground v.1.15,2013-08-13 16:00:00,
2013-08-13 12:10:00,67.3,65.2,29.81,SSE,167,3.0,11.0,93,0.00,,,0.11,Wunderground v.1.15,2013-08-13 16:10:00,
2013-08-13 12:15:00,67.7,65.9,29.81,SSE,165,3.0,11.0,94,0.00,,,0.11,Wunderground v.1.15,2013-08-13 16:15:00,
2013-08-13 12:20:00,67.8,65.7,29.81,South,171,3.0,11.0,93,0.00,,,0.11,Wunderground v.1.15,2013-08-13 16:20:00,
2013-08-13 12:25:00,67.8,65.7,29.80,SSE,153,4.0,11.0,93,0.00,,,0.11,Wunderground v.1.15,2013-08-13 16:25:00,
2013-08-13 12:35:00,68.0,65.9,29.80,SE,144,2.0,11.0,93,0.00,,,0.11,Wunderground v.1.15,2013-08-13 16:35:00,
2013-08-13 12:40:00,68.2,66.1,29.80,SE,143,2.0,11.0,93,0.00,,,0.11,Wunderground v.1.15,2013-08-13 16:40:00,
2013-08-13 12:45:00,68.7,66.6,29.80,SE,135,1.0,11.0,93,0.00,,,0.11,Wunderground v.1.15,2013-08-13 16:45:00,
2013-08-13 12:50:00,68.7,66.6,29.80,SE,138,2.0,11.0,93,0.00,,,0.11,Wunderground v.1.15,2013-08-13 16:50:00,
2013-08-13 12:55:00,68.8,66.7,29.80,SE,127,2.0,11.0,93,0.00,,,0.11,Wunderground v.1.15,2013-08-13 16:55:00,
2013-08-13 13:05:00,69.1,67.0,29.79,ESE,106,2.0,11.0,93,0.00,,,0.11,Wunderground v.1.15,2013-08-13 17:05:00,
2013-08-13 13:15:00,69.3,66.9,29.79,ESE,111,1.0,11.0,92,0.00,,,0.11,Wunderground v.1.15,2013-08-13 17:15:00,
2013-08-13 13:25:00,69.4,67.0,29.78,East,94,1.0,2.0,92,0.00,,,0.11,Wunderground v.1.15,2013-08-13 17:25:00,
2013-08-13 13:30:00,69.4,67.0,29.78,East,82,1.0,1.0,92,0.00,,,0.11,Wunderground v.1.15,2013-08-13 17:30:00,
2013-08-13 13:35:00,69.5,67.1,29.78,ESE,117,1.0,11.0,92,0.00,,,0.11,Wunderground v.1.15,2013-08-13 17:35:00,
2013-08-13 13:40:00,69.5,67.1,29.78,SE,128,1.0,11.0,92,0.00,,,0.11,Wunderground v.1.15,2013-08-13 17:40:00,
2013-08-13 13:50:00,69.5,66.4,29.78,SSE,154,3.0,11.0,90,0.00,,,0.11,Wunderground v.1.15,2013-08-13 17:50:00,
2013-08-13 13:55:00,69.4,66.7,29.77,East,101,3.0,11.0,91,0.00,,,0.11,Wunderground v.1.15,2013-08-13 17:55:00,
2013-08-13 14:00:00,69.5,66.4,29.77,SSE,149,2.0,11.0,90,0.00,,,0.11,Wunderground v.1.15,2013-08-13 18:00:00,
2013-08-13 14:10:00,69.7,66.6,29.76,ESE,118,1.0,11.0,90,0.00,,,0.11,Wunderground v.1.15,2013-08-13 18:10:00,
2013-08-13 14:15:00,69.8,67.1,29.76,ESE,112,1.0,11.0,91,0.00,,,0.11,Wunderground v.1.15,2013-08-13 18:15:00,
2013-08-13 14:20:00,69.7,66.3,29.76,ESE,111,3.0,3.0,89,0.00,,,0.11,Wunderground v.1.15,2013-08-13 18:20:00,
2013-08-13 14:25:00,69.9,66.5,29.75,SSE,151,4.0,4.0,89,0.00,,,0.11,Wunderground v.1.15,2013-08-13 18:25:00,
2013-08-13 14:30:00,70.2,66.5,29.75,SE,128,3.0,11.0,88,0.00,,,0.11,Wunderground v.1.15,2013-08-13 18:30:00,
2013-08-13 14:35:00,70.5,66.8,29.75,SSE,153,3.0,11.0,88,0.00,,,0.11,Wunderground v.1.15,2013-08-13 18:35:00,
2013-08-13 14:45:00,70.8,66.1,29.74,SSE,167,5.0,5.0,85,0.00,,,0.11,Wunderground v.1.15,2013-08-13 18:45:00,
2013-08-13 14:50:00,70.5,66.1,29.75,SSE,155,5.0,5.0,86,0.00,,,0.11,Wunderground v.1.15,2013-08-13 18:50:00,
2013-08-13 14:55:00,70.3,65.9,29.75,SE,140,4.0,6.0,86,0.00,,,0.11,Wunderground v.1.15,2013-08-13 18:55:00,
2013-08-13 15:00:00,70.3,65.9,29.74,SE,137,4.0,4.0,86,0.00,,,0.11,Wunderground v.1.15,2013-08-13 19:00:00,
2013-08-13 15:10:00,70.3,66.2,29.73,SE,136,2.0,2.0,87,0.00,,,0.11,Wunderground v.1.15,2013-08-13 19:10:00,
2013-08-13 15:15:00,70.6,66.5,29.73,East,93,1.0,11.0,87,0.00,,,0.11,Wunderground v.1.15,2013-08-13 19:15:00,
2013-08-13 15:20:00,70.9,67.2,29.73,ESE,108,1.0,1.0,88,0.00,,,0.11,Wunderground v.1.15,2013-08-13 19:20:00,
2013-08-13 15:25:00,71.1,67.0,29.73,ESE,107,0.0,11.0,87,0.00,,,0.11,Wunderground v.1.15,2013-08-13 19:25:00,
2013-08-13 15:30:00,71.2,66.8,29.74,East,101,0.0,11.0,86,0.00,,,0.11,Wunderground v.1.15,2013-08-13 19:30:00,
2013-08-13 15:40:00,71.1,66.7,29.73,ESE,108,0.0,11.0,86,0.00,,,0.11,Wunderground v.1.15,2013-08-13 19:40:00,
2013-08-13 15:45:00,71.3,67.2,29.73,ESE,112,0.0,11.0,87,0.00,,,0.11,Wunderground v.1.15,2013-08-13 19:45:00,
2013-08-13 15:50:00,71.5,67.1,29.73,ENE,76,1.0,11.0,86,0.00,,,0.11,Wunderground v.1.15,2013-08-13 19:50:00,
2013-08-13 16:00:00,72.4,68.0,29.73,East,99,1.0,1.0,86,0.00,,,0.11,Wunderground v.1.15,2013-08-13 20:00:00,
2013-08-13 16:10:00,73.3,67.8,29.72,East,86,0.0,11.0,83,0.00,,,0.11,Wunderground v.1.15,2013-08-13 20:10:00,
2013-08-13 16:15:00,72.9,66.4,29.72,SE,134,1.0,11.0,80,0.00,,,0.11,Wunderground v.1.15,2013-08-13 20:15:00,
2013-08-13 16:20:00,72.8,66.6,29.72,SE,131,2.0,11.0,81,0.00,,,0.11,Wunderground v.1.15,2013-08-13 20:20:00,
2013-08-13 16:30:00,72.0,65.8,29.72,East,99,2.0,2.0,81,0.00,,,0.11,Wunderground v.1.15,2013-08-13 20:30:00,
2013-08-13 16:35:00,71.9,66.1,29.72,ENE,78,1.0,11.0,82,0.00,,,0.11,Wunderground v.1.15,2013-08-13 20:35:00,
2013-08-13 16:40:00,72.0,66.2,29.71,East,95,0.0,11.0,82,0.00,,,0.11,Wunderground v.1.15,2013-08-13 20:40:00,
2013-08-13 16:45:00,72.2,66.4,29.71,ESE,119,1.0,11.0,82,0.00,,,0.11,Wunderground v.1.15,2013-08-13 20:45:00,
2013-08-13 16:55:00,72.2,66.4,29.71,ENE,73,1.0,11.0,82,0.00,,,0.11,Wunderground v.1.15,2013-08-13 20:55:00,
2013-08-13 17:00:00,71.9,66.1,29.71,East,97,1.0,11.0,82,0.00,,,0.11,Wunderground v.1.15,2013-08-13 21:00:00,
2013-08-13 17:05:00,71.7,66.3,29.71,ESE,109,1.0,11.0,83,0.00,,,0.11,Wunderground v.1.15,2013-08-13 21:05:00,
2013-08-13 17:10:00,71.7,66.3,29.71,ESE,120,1.0,1.0,83,0.00,,,0.11,Wunderground v.1.15,2013-08-13 21:10:00,
2013-08-13 17:20:00,71.9,66.1,29.71,ESE,117,1.0,1.0,82,0.00,,,0.11,Wunderground v.1.15,2013-08-13 21:20:00,
2013-08-13 17:25:00,72.1,66.6,29.71,East,98,1.0,11.0,83,0.00,,,0.11,Wunderground v.1.15,2013-08-13 21:25:00,
2013-08-13 17:30:00,72.4,66.6,29.71,ENE,76,0.0,11.0,82,0.00,,,0.11,Wunderground v.1.15,2013-08-13 21:30:00,
2013-08-13 17:35:00,72.4,66.6,29.70,ENE,76,0.0,11.0,82,0.00,,,0.11,Wunderground v.1.15,2013-08-13 21:35:00,
2013-08-13 17:40:00,72.4,66.6,29.70,ENE,76,0.0,11.0,82,0.00,,,0.11,Wunderground v.1.15,2013-08-13 21:40:00,
2013-08-13 17:50:00,72.6,66.4,29.70,ENE,77,0.0,11.0,81,0.00,,,0.11,Wunderground v.1.15,2013-08-13 21:50:00,
2013-08-13 17:55:00,73.1,67.3,29.70,ENE,77,0.0,11.0,82,0.00,,,0.11,Wunderground v.1.15,2013-08-13 21:55:00,
2013-08-13 18:00:00,73.8,67.2,29.69,ENE,78,0.0,11.0,80,0.00,,,0.11,Wunderground v.1.15,2013-08-13 22:00:00,
2013-08-13 18:05:00,73.9,66.6,29.70,East,86,0.0,11.0,78,0.00,,,0.11,Wunderground v.1.15,2013-08-13 22:05:00,
2013-08-13 18:15:00,72.8,66.3,29.69,East,87,0.0,11.0,80,0.00,,,0.11,Wunderground v.1.15,2013-08-13 22:15:00,
2013-08-13 18:20:00,72.4,66.2,29.69,East,86,0.0,11.0,81,0.00,,,0.11,Wunderground v.1.15,2013-08-13 22:20:00,
2013-08-13 18:30:00,72.1,66.6,29.69,East,87,0.0,11.0,83,0.00,,,0.11,Wunderground v.1.15,2013-08-13 22:30:00,
2013-08-13 18:35:00,72.5,66.7,29.69,East,87,0.0,11.0,82,0.00,,,0.11,Wunderground v.1.15,2013-08-13 22:35:00,
2013-08-13 18:45:00,73.5,66.9,29.69,East,95,0.0,11.0,80,0.00,,,0.11,Wunderground v.1.15,2013-08-13 22:45:00,
2013-08-13 18:50:00,73.4,66.5,29.69,East,95,1.0,1.0,79,0.00,,,0.11,Wunderground v.1.15,2013-08-13 22:50:00,
2013-08-13 18:55:00,72.9,66.4,29.69,East,95,1.0,11.0,80,0.00,,,0.11,Wunderground v.1.15,2013-08-13 22:55:00,
2013-08-13 19:05:00,71.2,65.4,29.69,East,95,0.0,11.0,82,0.00,,,0.11,Wunderground v.1.15,2013-08-13 23:05:00,
2013-08-13 19:10:00,70.4,65.3,29.69,East,95,0.0,11.0,84,0.00,,,0.11,Wunderground v.1.15,2013-08-13 23:10:00,
2013-08-13 19:20:00,69.6,65.9,29.69,East,95,0.0,11.0,88,0.00,,,0.11,Wunderground v.1.15,2013-08-13 23:20:00,
2013-08-13 19:25:00,69.4,66.0,29.69,East,95,0.0,11.0,89,0.00,,,0.11,Wunderground v.1.15,2013-08-13 23:25:00,
2013-08-13 19:30:00,69.0,65.3,29.68,East,95,0.0,11.0,88,0.00,,,0.11,Wunderground v.1.15,2013-08-13 23:30:00,
2013-08-13 19:35:00,68.8,65.1,29.68,East,95,1.0,11.0,88,0.00,,,0.11,Wunderground v.1.15,2013-08-13 23:35:00,
2013-08-13 19:45:00,68.4,65.4,29.68,East,95,1.0,11.0,90,0.00,,,0.11,Wunderground v.1.15,2013-08-13 23:45:00,
2013-08-13 19:50:00,67.9,65.2,29.68,East,95,0.0,11.0,91,0.00,,,0.11,Wunderground v.1.15,2013-08-13 23:50:00,
2013-08-13 19:55:00,67.6,64.9,29.68,East,95,0.0,11.0,91,0.00,,,0.11,Wunderground v.1.15,2013-08-13 23:55:00,
2013-08-13 20:05:00,67.3,64.3,29.68,East,95,0.0,11.0,90,0.00,,,0.11,Wunderground v.1.15,2013-08-14 00:05:00,
2013-08-13 20:10:00,67.3,64.3,29.69,East,95,0.0,11.0,90,0.00,,,0.11,Wunderground v.1.15,2013-08-14 00:10:00,
2013-08-13 20:15:00,67.3,64.6,29.69,East,95,0.0,11.0,91,0.00,,,0.11,Wunderground v.1.15,2013-08-14 00:15:00,
2013-08-13 20:20:00,67.1,64.4,29.69,East,95,0.0,11.0,91,0.00,,,0.11,Wunderground v.1.15,2013-08-14 00:20:00,
2013-08-13 20:25:00,67.0,64.3,29.69,East,95,0.0,11.0,91,0.00,,,0.11,Wunderground v.1.15,2013-08-14 00:25:00,
2013-08-13 20:35:00,66.9,64.2,29.69,East,95,0.0,11.0,91,0.00,,,0.11,Wunderground v.1.15,2013-08-14 00:35:00,
2013-08-13 20:40:00,66.9,64.2,29.69,East,95,1.0,11.0,91,0.00,,,0.11,Wunderground v.1.15,2013-08-14 00:40:00,
2013-08-13 20:45:00,66.7,64.0,29.69,East,95,2.0,11.0,91,0.00,,,0.11,Wunderground v.1.15,2013-08-14 00:45:00,
2013-08-13 20:50:00,66.3,63.9,29.70,East,95,2.0,11.0,92,0.00,,,0.11,Wunderground v.1.15,2013-08-14 00:50:00,
2013-08-13 20:55:00,66.2,63.8,29.69,East,95,2.0,11.0,92,0.00,,,0.11,Wunderground v.1.15,2013-08-14 00:55:00,
2013-08-13 21:05:00,65.8,63.7,29.70,SE,142,2.0,11.0,93,0.00,,,0.11,Wunderground v.1.15,2013-08-14 01:05:00,
2013-08-13 21:10:00,65.7,63.6,29.70,SE,142,2.0,11.0,93,0.00,,,0.11,Wunderground v.1.15,2013-08-14 01:10:00,
2013-08-13 21:20:00,65.5,63.7,29.71,SE,142,1.0,11.0,94,0.00,,,0.11,Wunderground v.1.15,2013-08-14 01:20:00,
2013-08-13 21:25:00,65.3,63.5,29.72,SE,144,1.0,11.0,94,0.00,,,0.11,Wunderground v.1.15,2013-08-14 01:25:00,
2013-08-13 21:30:00,65.4,63.6,29.71,SE,145,1.0,11.0,94,0.00,,,0.11,Wunderground v.1.15,2013-08-14 01:30:00,
2013-08-13 21:35:00,65.4,63.9,29.71,South,189,2.0,11.0,95,0.00,,,0.11,Wunderground v.1.15,2013-08-14 01:35:00,
2013-08-13 21:40:00,65.6,63.8,29.71,South,189,3.0,3.0,94,0.00,,,0.11,Wunderground v.1.15,2013-08-14 01:40:00,
2013-08-13 21:50:00,65.7,63.9,29.71,South,190,3.0,11.0,94,0.00,,,0.11,Wunderground v.1.15,2013-08-14 01:50:00,
2013-08-13 21:55:00,65.8,63.7,29.71,South,190,3.0,11.0,93,0.00,,,0.11,Wunderground v.1.15,2013-08-14 01:55:00,
2013-08-13 22:00:00,65.7,63.6,29.71,South,190,3.0,11.0,93,0.00,,,0.11,Wunderground v.1.15,2013-08-14 02:00:00,
2013-08-13 22:05:00,65.7,63.6,29.70,South,190,3.0,11.0,93,0.00,,,0.11,Wunderground v.1.15,2013-08-14 02:05:00,
2013-08-13 22:10:00,65.6,63.5,29.70,South,177,4.0,4.0,93,0.00,,,0.11,Wunderground v.1.15,2013-08-14 02:10:00,
2013-08-13 22:20:00,65.4,63.3,29.71,South,177,2.0,2.0,93,0.00,,,0.11,Wunderground v.1.15,2013-08-14 02:20:00,
2013-08-13 22:25:00,65.3,63.2,29.72,South,178,2.0,11.0,93,0.00,,,0.11,Wunderground v.1.15,2013-08-14 02:25:00,
2013-08-13 22:30:00,65.3,63.2,29.71,South,178,2.0,11.0,93,0.00,,,0.11,Wunderground v.1.15,2013-08-14 02:30:00,
2013-08-13 22:35:00,65.3,63.2,29.71,South,178,1.0,11.0,93,0.00,,,0.11,Wunderground v.1.15,2013-08-14 02:35:00,
2013-08-13 22:40:00,65.3,63.2,29.71,South,178,0.0,11.0,93,0.00,,,0.11,Wunderground v.1.15,2013-08-14 02:40:00,
2013-08-13 22:50:00,65.1,63.0,29.70,South,177,0.0,11.0,93,0.00,,,0.11,Wunderground v.1.15,2013-08-14 02:50:00,
2013-08-13 22:55:00,65.0,62.9,29.70,South,178,0.0,11.0,93,0.00,,,0.11,Wunderground v.1.15,2013-08-14 02:55:00,
2013-08-13 23:00:00,65.0,62.9,29.70,South,178,0.0,11.0,93,0.00,,,0.11,Wunderground v.1.15,2013-08-14 03:00:00,
2013-08-13 23:10:00,64.9,63.1,29.69,South,178,0.0,11.0,94,0.00,,,0.11,Wunderground v.1.15,2013-08-14 03:10:00,
2013-08-13 23:15:00,64.9,63.1,29.70,South,178,0.0,11.0,94,0.00,,,0.11,Wunderground v.1.15,2013-08-14 03:15:00,
2013-08-13 23:20:00,64.8,63.0,29.70,South,178,1.0,1.0,94,0.00,,,0.11,Wunderground v.1.15,2013-08-14 03:20:00,
2013-08-13 23:25:00,64.7,62.9,29.69,South,178,0.0,11.0,94,0.00,,,0.11,Wunderground v.1.15,2013-08-14 03:25:00,
2013-08-13 23:30:00,64.8,63.3,29.68,South,178,0.0,11.0,95,0.00,,,0.11,Wunderground v.1.15,2013-08-14 03:30:00,
2013-08-13 23:40:00,65.2,63.4,29.67,South,178,1.0,11.0,94,0.00,,,0.11,Wunderground v.1.15,2013-08-14 03:40:00,
2013-08-13 23:45:00,65.3,63.5,29.68,South,181,1.0,11.0,94,0.00,,,0.11,Wunderground v.1.15,2013-08-14 03:45:00,
2013-08-13 23:50:00,65.3,63.5,29.67,South,182,1.0,1.0,94,0.00,,,0.11,Wunderground v.1.15,2013-08-14 03:50:00,
2013-08-13 23:55:00,65.4,63.6,29.67,South,182,1.0,3.0,94,0.00,,,0.11,Wunderground v.1.15,2013-08-14 03:55:00,